カタログに戻る

SL-8 DEB

運用中LEO
NORAD 21180·DEBRIS·🇷🇺 Russia

打ち上げ Feb 12, 1991 から Plesetsk Cosmodrome

Loading…

次のパス (今後24時間)

TLE

最新Source: Space-Track

元期: Sep 14, 2026, 14:44 UTC

1 21180U 91009AT  26257.61445971  .00000012  00000-0  22793-3 0  9999
2 21180  74.0614 207.2867 0105405 182.0375 353.7930 12.28945253591689

AllMySatでSL-8 DEBをリアルタイム追跡

Download on the App Store